Location: Naples
(26.1420°N, 81.7950°W)
Time: 13:17:01
(UTC-04:00)

Tiangong - Pass Details

Date: 16 May 2026
Orbit: 380 x 392 km, 41.5° (Epoch: 11 June)

Event Time Altitude Azimuth Distance (km) Brightness Sun altitude
Exits shadow 05:00:22 10° 329° (NNW) 1,430 0.8 -20.6°
Reaches altitude 10° 05:00:26 10° 330° (NNW) 1,407 0.8 -20.6°
Maximum altitude 05:03:08 25° 28° (NNE) 815 0.1 -20.1°
Drops below altitude 10° 05:05:49 10° 87° (E) 1,396 1.5 -19.6°
Sets 05:08:06 0° 101° (E) 2,244 2.4 -19.2°
